Location: Bailleul
(50.3375°N, 2.8513°E)
Time: 21:22:41
(UTC+00:00)

FALCON 9 DEB - Pass Details

Date: 19 April 2021
Orbit: 422 x 435 km, 53.0° (Epoch: 18 May)

Event Time Altitude Azimuth Distance (km) Brightness Sun altitude
Rises 21:36:26 0° 263° (W) 2,391 7.3 -21.9°
Reaches altitude 10° 21:38:33 10° 267° (W) 1,529 6.3 -22.1°
Enters shadow 21:41:46 59° 329° (NNW) 502 3.6 -22.3°
